Exeter, United Kingdom

3:58 PM GMT on January 20, 2018 (GMT +0000)
Exeter

Weather History for EGTE - September, 2013

Change the Weather History Date:

Monday, September 9, 2013

  Actual Average Record
Temperature  
Mean Temperature 60 °F -  
Max Temperature 69 °F 62 °F 75 °F (2004)
Min Temperature 51 °F 48 °F 41 °F (2012)
Degree Days  
Heating Degree Days 5    
Growing Degree Days 10 (Base 50)    
Moisture  
Dew Point 52 °F    
Average Humidity 79    
Maximum Humidity 100    
Minimum Humidity 45    
Precipitation  
Precipitation 0.01 in - - ()
Sea Level Pressure  
Sea Level Pressure 30.00 in    
Wind  
Wind Speed 8 mph ()    
Max Wind Speed 18 mph    
Max Gust Speed -    
Visibility 5.8 miles    
Events Rain    
Averages and records for this station are not official NWS values.
T = Trace of Precipitation, MM = Missing Value Source: Averaged Metar Reports

Daily Weather History Graph

Daily Weather History Graph

Search for Another Location

Airport or City:

Trip Planner

Search our weather history database for the weather conditions in past years. The results will help you decide how hot, cold, wet, or windy it might be!

Date:

Astronomy

Sep. 09, 2013 Rise Set
Actual Time 6:39 AM BST 7:40 PM BST
Civil Twilight 6:06 AM BST 8:14 PM BST
Nautical Twilight 5:26 AM BST 8:54 PM BST
Astronomical Twilight 4:42 AM BST 9:37 PM BST
Moon 11:18 AM BST (9/9) 9:13 PM BST (9/9)
Length of Visible Light 14h 07m
Length of Day
13h 00m
Waxing Crescent, 17% of the Moon is Illuminated
Sep 9
Waxing Crescent
Sep 12
First Quarter
Sep 19
Full
Sep 27
Last Quarter
Oct 5
New

Hourly Weather History & Observations

Time (BST) Temp. Dew Point Humidity Pressure Visibility Wind Dir Wind Speed Gust Speed Precip Events Conditions
12:20 AM 55.4 °F 51.8 °F 88% 30.04 in 6.2 mi SSW 6.9 mph - N/A   Scattered Clouds
12:50 AM 55.4 °F 51.8 °F 88% 30.01 in 6.2 mi SSW 8.1 mph - N/A   Scattered Clouds
1:20 AM 55.4 °F 51.8 °F 88% 30.01 in 6.2 mi South 5.8 mph - N/A   Scattered Clouds
1:50 AM 55.4 °F 51.8 °F 88% 30.01 in 6.2 mi South 4.6 mph - N/A   Scattered Clouds
2:20 AM 55.4 °F 51.8 °F 88% 29.98 in 6.2 mi South 8.1 mph - N/A   Scattered Clouds
2:50 AM 55.4 °F 53.6 °F 94% 29.98 in 6.2 mi South 9.2 mph - N/A   Scattered Clouds
3:20 AM 55.4 °F 53.6 °F 94% 29.98 in 4.3 mi South 8.1 mph - N/A Rain Light Rain
3:50 AM 56 °F 53 °F 88%  in - Calm Calm - -  
5:50 AM 55.4 °F 53.6 °F 94% 29.95 in 6.2 mi SSE 4.6 mph - N/A   Drizzle
6:20 AM 55.4 °F 55.4 °F 100% 29.92 in 5.6 mi SE 5.8 mph - N/A Rain Light Rain
6:50 AM 56 °F 55 °F 95%  in - Calm Calm - -  
6:50 AM 55.4 °F 55.4 °F 100% 29.92 in 6.2 mi ESE 5.8 mph - N/A   Light Drizzle
7:20 AM 55.4 °F 55.4 °F 100% 29.92 in 6.2 mi East 4.6 mph - N/A   Mostly Cloudy
7:50 AM 57.2 °F 55.4 °F 94% 29.95 in 6.2 mi Variable 2.3 mph - N/A   Mostly Cloudy
8:20 AM 57.2 °F 55.4 °F 94% 29.95 in 3.1 mi Variable 2.3 mph - N/A   Light Drizzle
8:50 AM 57.2 °F 57.2 °F 100% 29.95 in 2.5 mi NNE 4.6 mph - N/A Rain Light Rain
9:20 AM 57.2 °F 57.2 °F 100% 29.95 in 2.5 mi NNE 4.6 mph - N/A   Light Drizzle
9:50 AM 58 °F 57 °F 94%  in - Calm Calm - -  
9:50 AM 57.2 °F 57.2 °F 100% 29.95 in 5.6 mi North 5.8 mph - N/A   Mostly Cloudy
10:20 AM 59.0 °F 57.2 °F 94% 29.95 in 6.2 mi Variable 2.3 mph - N/A   Scattered Clouds
10:50 AM 60.8 °F 59.0 °F 94% 29.98 in 6.2 mi WNW 5.8 mph - N/A   Scattered Clouds
11:20 AM 62.6 °F 57.2 °F 82% 29.98 in 6.2 mi NNW 6.9 mph - N/A   Scattered Clouds
11:50 AM 62.6 °F 57.2 °F 82% 29.98 in 6.2 mi NNW 6.9 mph - N/A   Scattered Clouds
12:20 PM 64.4 °F 57.2 °F 77% 29.98 in 6.2 mi NW 10.4 mph - N/A   Scattered Clouds
12:50 PM 66 °F 57 °F 64%  in - Calm Calm - -  
12:50 PM 68.0 °F 55.4 °F 64% 29.98 in 6.2 mi NW 16.1 mph - N/A   Scattered Clouds
1:20 PM 66.2 °F 55.4 °F 68% 29.98 in 6.2 mi NW 15.0 mph - N/A   Scattered Clouds
1:50 PM 68.0 °F 53.6 °F 60% 29.98 in 6.2 mi NW 16.1 mph - N/A   Scattered Clouds
2:20 PM 68.0 °F 51.8 °F 56% 29.98 in 6.2 mi NNW 13.8 mph - N/A   Scattered Clouds
2:50 PM 66.2 °F 51.8 °F 60% 29.98 in 6.2 mi NNW 16.1 mph - N/A   Partly Cloudy
3:20 PM 66.2 °F 50.0 °F 56% 30.01 in 6.2 mi NNW 15.0 mph - N/A   Partly Cloudy
3:50 PM 64 °F 48 °F 45%  in - Calm Calm - -  
3:50 PM 66.2 °F 50.0 °F 56% 30.01 in 6.2 mi NNW 16.1 mph - N/A   Scattered Clouds
4:20 PM 66.2 °F 48.2 °F 52% 30.01 in 6.2 mi NNW 17.3 mph - N/A   Partly Cloudy
4:50 PM 66.2 °F 48.2 °F 52% 30.01 in 6.2 mi NW 17.3 mph - N/A   Scattered Clouds
5:20 PM 66.2 °F 48.2 °F 52% 30.04 in 6.2 mi NW 17.3 mph - N/A   Scattered Clouds
5:50 PM 64.4 °F 50.0 °F 59% 30.04 in 6.2 mi NNW 17.3 mph - N/A   Scattered Clouds
6:20 PM 62.6 °F 48.2 °F 59% 30.04 in 6.2 mi NW 18.4 mph - N/A   Partly Cloudy
6:50 PM 60 °F 47 °F 53%  in - Calm Calm - -  
6:50 PM 60.8 °F 48.2 °F 63% 30.06 in 6.2 mi NW 18.4 mph - N/A   Partly Cloudy
7:50 PM 57.2 °F 48.2 °F 72% 30.06 in - NW 13.8 mph - N/A   Clear
8:20 PM 55.4 °F 48.2 °F 77% 30.09 in - NW 9.2 mph - N/A   Clear
8:50 PM 55.4 °F 48.2 °F 77% 30.09 in - Variable 3.5 mph - N/A   Clear
9:20 PM 53.6 °F 48.2 °F 82% 30.12 in - Variable 2.3 mph - N/A   Clear
9:50 PM 51 °F 46 °F 78%  in - Calm Calm - -  
9:50 PM 53.6 °F 48.2 °F 82% 30.12 in - Variable 2.3 mph - N/A   Clear
10:20 PM 51.8 °F 48.2 °F 88% 30.12 in - WNW 6.9 mph - N/A   Clear
10:50 PM 51.8 °F 48.2 °F 88% 30.12 in - WNW 6.9 mph - N/A   Clear